When you browse on this site, cookies collect data to enhance your experience and personalize the content and advertising you see.
Visit our Privacy Policy to learn more. By continuing to use the site, you agree to this use of cookies and data.
  • En España
  • Lista de países
  • Para 7 días
  • Temperatura del agua
  • Mapa Satelital
  • El tiempo en el mapa
  • Informadores
  • user-avatar
    Iniciar sesión

    Tiempo cada hora Atoyatempan

    Hoy, 16 Diciembre, Domingo

    Tiempo Temperatura Precipitaciones Viento Presión Humedad
    00:00 +12°C° 0 mm 2 mps 609 mmHg 71%
    01:00 +12°C° 0 mm 2 mps 609 mmHg 72%
    02:00 +10°C° 0 mm 2 mps 609 mmHg 73%
    03:00 +10°C° 0 mm 2 mps 609 mmHg 74%
    04:00 +10°C° 0 mm 2 mps 609 mmHg 75%
    05:00 +10°C° 0 mm 2 mps 609 mmHg 76%
    06:00 +12°C° 0 mm 2 mps 610 mmHg 70%
    07:00 +13°C° 0 mm 2 mps 610 mmHg 64%
    08:00 +15°C° 0 mm 2 mps 611 mmHg 57%
    09:00 +17°C° 0 mm 2 mps 612 mmHg 50%
    10:00 +19°C° 0 mm 2 mps 612 mmHg 43%
    11:00 +21°C° 0 mm 2 mps 612 mmHg 36%
    12:00 +21°C° 0 mm 2 mps 612 mmHg 35%
    13:00 +22°C° 0 mm 3 mps 611 mmHg 34%
    14:00 +24°C° 0 mm 3 mps 611 mmHg 32%
    15:00 +21°C° 0 mm 3 mps 610 mmHg 38%
    16:00 +19°C° 0 mm 2 mps 610 mmHg 44%
    17:00 +17°C° 0 mm 2 mps 609 mmHg 50%
    18:00 +16°C° 0 mm 2 mps 609 mmHg 55%
    19:00 +16°C° 0 mm 2 mps 609 mmHg 59%
    20:00 +15°C° 0 mm 2 mps 610 mmHg 64%
    21:00 +14°C° 0 mm 2 mps 610 mmHg 66%
    22:00 +14°C° 0 mm 2 mps 610 mmHg 69%
    23:00 +13°C° 0 mm 2 mps 609 mmHg 71%

    Mañana, 17 Diciembre, Lunes

    Tiempo Temperatura Precipitaciones Viento Presión Humedad
    00:00 +13°C° 0 mm 2 mps 609 mmHg 72%
    01:00 +12°C° 0 mm 2 mps 609 mmHg 73%
    02:00 +12°C° 0 mm 1 mps 608 mmHg 74%
    03:00 +12°C° 0 mm 1 mps 608 mmHg 75%
    04:00 +11°C° 0 mm 1 mps 608 mmHg 75%
    05:00 +11°C° 0 mm 1 mps 608 mmHg 76%
    06:00 +13°C° 0 mm 1 mps 609 mmHg 69%
    07:00 +14°C° 0 mm 1 mps 610 mmHg 63%
    08:00 +16°C° 0 mm 1 mps 611 mmHg 56%
    09:00 +19°C° 0 mm 1 mps 611 mmHg 51%
    10:00 +19°C° 0 mm 2 mps 611 mmHg 46%
    11:00 +21°C° 0 mm 2 mps 612 mmHg 41%
    12:00 +21°C° 0 mm 2 mps 611 mmHg 40%
    13:00 +22°C° 0 mm 3 mps 610 mmHg 39%
    14:00 +22°C° 0 mm 3 mps 610 mmHg 38%
    15:00 +21°C° 0 mm 3 mps 609 mmHg 43%
    16:00 +19°C° 0 mm 2 mps 609 mmHg 49%
    17:00 +18°C° 0 mm 2 mps 608 mmHg 54%
    18:00 +17°C° 0 mm 2 mps 608 mmHg 58%
    19:00 +16°C° 0 mm 1 mps 608 mmHg 62%
    20:00 +15°C° 0 mm 1 mps 608 mmHg 66%
    21:00 +15°C° 0 mm 1 mps 608 mmHg 68%
    22:00 +14°C° 0 mm 1 mps 608 mmHg 70%
    23:00 +14°C° 0 mm 1 mps 608 mmHg 71%

    Pasado mañana, 18 Diciembre, Martes

    Tiempo Temperatura Precipitaciones Viento Presión Humedad
    00:00 +13°C° 0 mm 1 mps 607 mmHg 72%
    01:00 +13°C° 0 mm 1 mps 607 mmHg 73%
    02:00 +13°C° 0 mm 1 mps 606 mmHg 74%
    03:00 +12°C° 0 mm 1 mps 606 mmHg 76%
    04:00 +12°C° 0 mm 1 mps 606 mmHg 78%
    05:00 +11°C° 0 mm 0 mps 606 mmHg 80%
    06:00 +13°C° 0 mm 1 mps 607 mmHg 75%
    07:00 +15°C° 0 mm 1 mps 608 mmHg 69%
    08:00 +16°C° 0 mm 1 mps 609 mmHg 64%
    09:00 +19°C° 0 mm 1 mps 609 mmHg 58%
    10:00 +19°C° 0 mm 2 mps 609 mmHg 53%
    11:00 +21°C° 0 mm 3 mps 609 mmHg 47%
    12:00 +21°C° 0 mm 3 mps 609 mmHg 45%
    13:00 +22°C° 0 mm 4 mps 608 mmHg 43%
    14:00 +22°C° 0 mm 4 mps 607 mmHg 40%
    15:00 +21°C° 0 mm 4 mps 607 mmHg 44%
    16:00 +19°C° 0 mm 3 mps 607 mmHg 48%
    17:00 +18°C° 0 mm 2 mps 606 mmHg 52%
    18:00 +17°C° 0 mm 2 mps 607 mmHg 54%
    19:00 +16°C° 0 mm 2 mps 607 mmHg 57%
    20:00 +15°C° 0 mm 1 mps 607 mmHg 59%
    21:00 +15°C° 0 mm 1 mps 607 mmHg 61%
    22:00 +15°C° 0 mm 1 mps 606 mmHg 64%
    23:00 +14°C° 0 mm 1 mps 606 mmHg 66%

    19 Diciembre, Miércoles

    Tiempo Temperatura Precipitaciones Viento Presión Humedad
    00:00 +14°C° 0 mm 1 mps 605 mmHg 69%
    01:00 +13°C° 0 mm 1 mps 605 mmHg 73%
    02:00 +13°C° 0 mm 1 mps 604 mmHg 76%
    03:00 +12°C° 0 mm 1 mps 604 mmHg 78%
    04:00 +12°C° 0 mm 1 mps 604 mmHg 79%
    05:00 +12°C° 0 mm 1 mps 604 mmHg 81%
    06:00 +13°C° 0 mm 1 mps 605 mmHg 76%
    07:00 +14°C° 0 mm 1 mps 606 mmHg 70%
    08:00 +16°C° 0 mm 1 mps 607 mmHg 65%
    09:00 +17°C° 0 mm 2 mps 607 mmHg 58%
    10:00 +19°C° 0 mm 3 mps 607 mmHg 52%
    11:00 +20°C° 0 mm 4 mps 607 mmHg 45%
    12:00 +21°C° 0 mm 5 mps 607 mmHg 43%
    13:00 +21°C° 0 mm 6 mps 606 mmHg 42%
    14:00 +21°C° 0 mm 6 mps 605 mmHg 40%
    15:00 +20°C° 0 mm 6 mps 605 mmHg 44%
    16:00 +19°C° 0 mm 5 mps 605 mmHg 47%
    17:00 +18°C° 0 mm 4 mps 605 mmHg 51%
    18:00 +17°C° 0 mm 3 mps 605 mmHg 54%
    19:00 +16°C° 0 mm 2 mps 606 mmHg 57%
    20:00 +14°C° 0 mm 2 mps 606 mmHg 61%
    21:00 +14°C° 0 mm 1 mps 606 mmHg 62%
    22:00 +13°C° 0 mm 1 mps 605 mmHg 64%
    23:00 +13°C° 0 mm 1 mps 605 mmHg 66%

    20 Diciembre, Jueves

    Tiempo Temperatura Precipitaciones Viento Presión Humedad
    00:00 +12°C° 0 mm 1 mps 605 mmHg 68%
    01:00 +12°C° 0 mm 1 mps 605 mmHg 70%
    02:00 +11°C° 0 mm 1 mps 604 mmHg 72%
    03:00 +11°C° 0 mm 1 mps 604 mmHg 73%
    04:00 +11°C° 0 mm 1 mps 605 mmHg 74%
    05:00 +10°C° 0 mm 1 mps 605 mmHg 75%
    06:00 +12°C° 0 mm 1 mps 606 mmHg 69%
    07:00 +14°C° 0 mm 2 mps 607 mmHg 63%
    08:00 +15°C° 0 mm 2 mps 609 mmHg 57%
    09:00 +17°C° 0 mm 2 mps 609 mmHg 50%
    10:00 +18°C° 0 mm 2 mps 609 mmHg 43%
    11:00 +20°C° 0 mm 2 mps 610 mmHg 36%
    12:00 +20°C° 0 mm 2 mps 609 mmHg 35%
    13:00 +20°C° 0 mm 2 mps 609 mmHg 33%
    14:00 +21°C° 0 mm 3 mps 609 mmHg 32%
    15:00 +19°C° 0 mm 3 mps 608 mmHg 38%
    16:00 +18°C° 0 mm 3 mps 608 mmHg 44%
    17:00 +16°C° 0 mm 3 mps 608 mmHg 50%
    18:00 +14°C° 0 mm 3 mps 608 mmHg 56%
    19:00 +13°C° 0 mm 4 mps 608 mmHg 63%
    20:00 +12°C° 0 mm 4 mps 608 mmHg 69%
    21:00 +11°C° 0 mm 4 mps 608 mmHg 71%
    22:00 +11°C° 0 mm 4 mps 608 mmHg 73%
    23:00 +10°C° 0 mm 3 mps 608 mmHg 75%

    21 Diciembre, Viernes

    Tiempo Temperatura Precipitaciones Viento Presión Humedad
    00:00 +9°C° 0 mm 3 mps 607 mmHg 75%
    01:00 +9°C° 0 mm 3 mps 607 mmHg 74%
    02:00 +9°C° 0 mm 3 mps 607 mmHg 73%
    03:00 +8°C° 0 mm 3 mps 607 mmHg 71%
    04:00 +8°C° 0 mm 3 mps 607 mmHg 70%
    05:00 +7°C° 0 mm 3 mps 607 mmHg 69%
    06:00 +8°C° 0 mm 3 mps 608 mmHg 60%
    07:00 +10°C° 0 mm 4 mps 609 mmHg 51%
    08:00 +11°C° 0 mm 4 mps 610 mmHg 42%
    09:00 +13°C° 0 mm 4 mps 610 mmHg 35%
    10:00 +15°C° 0 mm 4 mps 611 mmHg 27%
    11:00 +19°C° 0 mm 4 mps 611 mmHg 20%
    12:00 +19°C° 0 mm 4 mps 611 mmHg 19%
    13:00 +19°C° 0 mm 4 mps 610 mmHg 19%
    14:00 +20°C° 0 mm 4 mps 610 mmHg 19%
    15:00 +18°C° 0 mm 4 mps 609 mmHg 24%
    16:00 +15°C° 0 mm 4 mps 609 mmHg 29%
    17:00 +13°C° 0 mm 3 mps 608 mmHg 35%
    18:00 +12°C° 0 mm 3 mps 608 mmHg 40%
    19:00 +11°C° 0 mm 3 mps 609 mmHg 46%
    20:00 +10°C° 0 mm 3 mps 609 mmHg 51%
    21:00 +9°C° 0 mm 3 mps 608 mmHg 52%
    22:00 +9°C° 0 mm 3 mps 608 mmHg 54%
    23:00 +8°C° 0 mm 3 mps 608 mmHg 55%
    Mostrar más